| time (UTC) | temp C | wind direction | speed KPH | gust KPH | rain 1hr cm | rain 24hr cm | rain mn cm | humidity % | barometer mb |
| 20260504050340 | 21 | 115 | 4.8 | 8.0 | 0.00 | 0.00 | 0.00 | 75 | 1019.1 |
| 20260504045837 | 21 | 129 | 8.0 | 14.5 | 0.00 | 0.00 | 0.00 | 75 | 1019.1 |
| 20260504045331 | 21 | 156 | 6.4 | 12.9 | 0.00 | 0.00 | 0.00 | 75 | 1019.2 |
| 20260504044829 | 21 | 144 | 6.4 | 14.5 | 0.00 | 0.00 | 0.00 | 75 | 1019.3 |
| 20260504044326 | 21 | 131 | 4.8 | 11.3 | 0.00 | 0.00 | 0.00 | 74 | 1019.4 |
| 20260504043823 | 21 | 128 | 4.8 | 8.0 | 0.00 | 0.00 | 0.00 | 74 | 1019.4 |
| 20260504043320 | 21 | 137 | 6.4 | 14.5 | 0.00 | 0.00 | 0.00 | 74 | 1019.3 |
| 20260504042818 | 21 | 155 | 6.4 | 11.3 | 0.00 | 0.00 | 0.00 | 73 | 1019.7 |
| 20260504042314 | 21 | 122 | 14.5 | 16.1 | 0.00 | 0.00 | 0.00 | 73 | 1019.5 |
| 20260504041810 | 21 | 133 | 6.4 | 16.1 | 0.00 | 0.00 | 0.00 | 73 | 1019.5 |
| 20260504041306 | 21 | 134 | 14.5 | 16.1 | 0.00 | 0.00 | 0.00 | 72 | 1019.4 |
| 20260504040803 | 21 | 128 | 11.3 | 14.5 | 0.00 | 0.00 | 0.00 | 72 | 1019.4 |
| 20260504040300 | 21 | 139 | 4.8 | 14.5 | 0.00 | 0.00 | 0.00 | 72 | 1019.9 |
| 20260504035756 | 21 | 147 | 9.7 | 14.5 | 0.00 | 0.00 | 0.00 | 71 | 1019.6 |
| 20260504035253 | 22 | 120 | 8.0 | 17.7 | 0.00 | 0.00 | 0.00 | 71 | 1019.7 |
| 20260504034751 | 22 | 148 | 9.7 | 12.9 | 0.00 | 0.00 | 0.00 | 71 | 1019.6 |
| 20260504034248 | 22 | 132 | 16.1 | 17.7 | 0.00 | 0.00 | 0.00 | 70 | 1020.0 |
| 20260504033745 | 22 | 126 | 9.7 | 14.5 | 0.00 | 0.00 | 0.00 | 70 | 1019.7 |
| 20260504033243 | 22 | 137 | 8.0 | 12.9 | 0.00 | 0.00 | 0.00 | 70 | 1019.6 |
| 20260504032739 | 22 | 124 | 14.5 | 16.1 | 0.00 | 0.00 | 0.00 | 69 | 1019.5 |
| 20260504032237 | 22 | 136 | 8.0 | 17.7 | 0.00 | 0.00 | 0.00 | 69 | 1019.6 |
| 20260504031733 | 22 | 124 | 12.9 | 19.3 | 0.00 | 0.00 | 0.00 | 68 | 1019.6 |
| 20260504031231 | 22 | 139 | 11.3 | 19.3 | 0.00 | 0.00 | 0.00 | 68 | 1019.4 |
| 20260504030726 | 22 | 136 | 8.0 | 14.5 | 0.00 | 0.00 | 0.00 | 68 | 1019.5 |
| 20260504030224 | 22 | 126 | 8.0 | 17.7 | 0.00 | 0.00 | 0.00 | 67 | 1019.5 |
| 20260504025720 | 22 | 128 | 12.9 | 17.7 | 0.00 | 0.00 | 0.00 | 67 | 1019.5 |
| 20260504025217 | 22 | 126 | 6.4 | 14.5 | 0.00 | 0.00 | 0.00 | 67 | 1019.2 |
| 20260504024714 | 22 | 145 | 12.9 | 17.7 | 0.00 | 0.00 | 0.00 | 66 | 1019.1 |
| 20260504024211 | 22 | 117 | 6.4 | 19.3 | 0.00 | 0.00 | 0.00 | 66 | 1019.2 |
| 20260504023708 | 22 | 133 | 12.9 | 12.9 | 0.00 | 0.00 | 0.00 | 65 | 1019.1 |
| 20260504023203 | 22 | 130 | 16.1 | 17.7 | 0.00 | 0.00 | 0.00 | 65 | 1019.1 |
| 20260504022700 | 22 | 135 | 14.5 | 19.3 | 0.00 | 0.00 | 0.00 | 64 | 1018.9 |
| 20260504022155 | 23 | 127 | 14.5 | 20.9 | 0.00 | 0.00 | 0.00 | 63 | 1018.9 |
| 20260504021654 | 23 | 121 | 9.7 | 22.5 | 0.00 | 0.00 | 0.00 | 63 | 1018.7 |
| 20260504021150 | 23 | 137 | 12.9 | 20.9 | 0.00 | 0.00 | 0.00 | 62 | 1018.9 |
| 20260504020647 | 23 | 138 | 11.3 | 19.3 | 0.00 | 0.00 | 0.00 | 62 | 1018.7 |
| 20260504020143 | 23 | 138 | 9.7 | 19.3 | 0.00 | 0.00 | 0.00 | 61 | 1018.8 |
| 20260504015640 | 23 | 133 | 12.9 | 16.1 | 0.00 | 0.00 | 0.00 | 60 | 1018.6 |
| 20260504015136 | 23 | 119 | 11.3 | 22.5 | 0.00 | 0.00 | 0.00 | 60 | 1018.7 |
| 20260504014632 | 23 | 137 | 11.3 | 17.7 | 0.00 | 0.00 | 0.00 | 59 | 1018.7 |
| 20260504014130 | 23 | 114 | 11.3 | 20.9 | 0.00 | 0.00 | 0.00 | 59 | 1018.6 |
| 20260504013627 | 23 | 114 | 11.3 | 14.5 | 0.00 | 0.00 | 0.00 | 58 | 1018.5 |
| 20260504013124 | 23 | 134 | 8.0 | 19.3 | 0.00 | 0.00 | 0.00 | 58 | 1018.2 |
| 20260504012621 | 23 | 126 | 6.4 | 14.5 | 0.00 | 0.00 | 0.00 | 57 | 1018.2 |
| 20260504012119 | 24 | 98 | 8.0 | 17.7 | 0.00 | 0.00 | 0.00 | 57 | 1018.2 |
| 20260504011616 | 24 | 133 | 12.9 | 20.9 | 0.00 | 0.00 | 0.00 | 57 | 1018.2 |
| 20260504011112 | 24 | 137 | 14.5 | 22.5 | 0.00 | 0.00 | 0.00 | 56 | 1018.4 |
| 20260504010608 | 24 | 126 | 14.5 | 17.7 | 0.00 | 0.00 | 0.00 | 56 | 1018.4 |
| 20260504010104 | 24 | 128 | 12.9 | 24.1 | 0.00 | 0.00 | 0.00 | 55 | 1018.4 |
| 20260504005601 | 25 | 130 | 11.3 | 25.7 | 0.00 | 0.00 | 0.00 | 55 | 1018.3 |
| 20260504005058 | 25 | 134 | 12.9 | 17.7 | 0.00 | 0.00 | 0.00 | 55 | 1018.5 |
| 20260504004556 | 25 | 124 | 12.9 | 20.9 | 0.00 | 0.00 | 0.00 | 54 | 1018.4 |
| 20260504004053 | 25 | 136 | 9.7 | 19.3 | 0.00 | 0.00 | 0.00 | 54 | 1018.1 |
| 20260504003549 | 25 | 151 | 8.0 | 22.5 | 0.00 | 0.00 | 0.00 | 54 | 1018.1 |
| 20260504003046 | 25 | 124 | 19.3 | 25.7 | 0.00 | 0.00 | 0.00 | 53 | 1018.2 |
| 20260504002542 | 25 | 137 | 17.7 | 25.7 | 0.00 | 0.00 | 0.00 | 53 | 1018.1 |
| 20260504002040 | 25 | 118 | 9.7 | 14.5 | 0.00 | 0.00 | 0.00 | 53 | 1018.3 |
| 20260504001538 | 25 | 127 | 9.7 | 24.1 | 0.00 | 0.00 | 0.00 | 53 | 1018.1 |
| 20260504001033 | 26 | 137 | 14.5 | 19.3 | 0.00 | 0.00 | 0.00 | 52 | 1018.3 |
| 20260504000531 | 26 | 102 | 6.4 | 14.5 | 0.00 | 0.00 | 0.00 | 52 | 1018.2 |
| 20260504000028 | 26 | 110 | 8.0 | 17.7 | 0.00 | 0.00 | 0.00 | 52 | 1018.1 |
| 20260503235526 | 26 | 121 | 6.4 | 16.1 | 0.00 | 0.00 | 0.00 | 52 | 1017.9 |
| 20260503235023 | 26 | 132 | 11.3 | 16.1 | 0.00 | 0.00 | 0.00 | 52 | 1017.9 |
| 20260503234520 | 26 | 137 | 9.7 | 22.5 | 0.00 | 0.00 | 0.00 | 52 | 1018.0 |
| 20260503234014 | 26 | 129 | 8.0 | 24.1 | 0.00 | 0.00 | 0.00 | 52 | 1017.9 |
| 20260503233509 | 26 | 124 | 16.1 | 24.1 | 0.00 | 0.00 | 0.00 | 51 | 1018.0 |
| 20260503233005 | 26 | 131 | 11.3 | 14.5 | 0.00 | 0.00 | 0.00 | 51 | 1018.1 |
| 20260503232502 | 26 | 128 | 14.5 | 20.9 | 0.00 | 0.00 | 0.00 | 50 | 1018.1 |
| 20260503232000 | 26 | 135 | 6.4 | 14.5 | 0.00 | 0.00 | 0.00 | 50 | 1018.2 |
| 20260503231457 | 27 | 139 | 17.7 | 22.5 | 0.00 | 0.00 | 0.00 | 49 | 1018.2 |
| 20260503230954 | 27 | 136 | 8.0 | 11.3 | 0.00 | 0.00 | 0.00 | 50 | 1018.1 |
| 20260503230450 | 27 | 136 | 12.9 | 17.7 | 0.00 | 0.00 | 0.00 | 50 | 1018.2 |
| 20260503225948 | 27 | 138 | 9.7 | 20.9 | 0.00 | 0.00 | 0.00 | 49 | 1018.3 |
| 20260503225445 | 27 | 120 | 9.7 | 19.3 | 0.00 | 0.00 | 0.00 | 49 | 1018.2 |
| 20260503224940 | 27 | 113 | 8.0 | 20.9 | 0.00 | 0.00 | 0.00 | 49 | 1018.3 |
| 20260503224437 | 27 | 128 | 6.4 | 12.9 | 0.00 | 0.00 | 0.00 | 49 | 1018.5 |
| 20260503223935 | 27 | 113 | 6.4 | 11.3 | 0.00 | 0.00 | 0.00 | 50 | 1018.2 |
| 20260503223433 | 27 | 132 | 11.3 | 16.1 | 0.00 | 0.00 | 0.00 | 50 | 1018.4 |
| 20260503222928 | 27 | 137 | 9.7 | 14.5 | 0.00 | 0.00 | 0.00 | 49 | 1018.6 |
| 20260503222427 | 27 | 143 | 8.0 | 20.9 | 0.00 | 0.00 | 0.00 | 48 | 1018.6 |
| 20260503221925 | 27 | 108 | 4.8 | 17.7 | 0.00 | 0.00 | 0.00 | 49 | 1018.7 |
| 20260503221423 | 27 | 137 | 14.5 | 20.9 | 0.00 | 0.00 | 0.00 | 47 | 1018.5 |
| 20260503220919 | 27 | 148 | 19.3 | 24.1 | 0.00 | 0.00 | 0.00 | 47 | 1018.7 |
| 20260503220415 | 27 | 133 | 8.0 | 17.7 | 0.00 | 0.00 | 0.00 | 47 | 1018.7 |
| 20260503215913 | 27 | 122 | 9.7 | 14.5 | 0.00 | 0.00 | 0.00 | 48 | 1019.0 |
| 20260503215409 | 27 | 128 | 20.9 | 30.6 | 0.00 | 0.00 | 0.00 | 47 | 1018.9 |
| 20260503214907 | 27 | 134 | 12.9 | 17.7 | 0.00 | 0.00 | 0.00 | 48 | 1019.2 |
| 20260503214405 | 27 | 137 | 16.1 | 22.5 | 0.00 | 0.00 | 0.00 | 46 | 1019.3 |
| 20260503213902 | 27 | 182 | 4.8 | 11.3 | 0.00 | 0.00 | 0.00 | 47 | 1019.3 |
| 20260503213400 | 27 | 144 | 12.9 | 17.7 | 0.00 | 0.00 | 0.00 | 47 | 1019.5 |
| 20260503212856 | 27 | 148 | 11.3 | 17.7 | 0.00 | 0.00 | 0.00 | 46 | 1019.3 |
| 20260503212354 | 27 | 167 | 3.2 | 9.7 | 0.00 | 0.00 | 0.00 | 46 | 1019.5 |
| 20260503211850 | 27 | 157 | 11.3 | 14.5 | 0.00 | 0.00 | 0.00 | 47 | 1019.3 |
| 20260503211347 | 27 | 147 | 4.8 | 9.7 | 0.00 | 0.00 | 0.00 | 48 | 1019.5 |
| 20260503210843 | 27 | 142 | 9.7 | 16.1 | 0.00 | 0.00 | 0.00 | 47 | 1019.5 |
| 20260503210340 | 27 | 143 | 8.0 | 14.5 | 0.00 | 0.00 | 0.00 | 47 | 1019.5 |
| 20260503205835 | 27 | 143 | 14.5 | 19.3 | 0.00 | 0.00 | 0.00 | 47 | 1019.6 |
| 20260503205332 | 28 | 135 | 9.7 | 11.3 | 0.00 | 0.00 | 0.00 | 46 | 1019.5 |
| 20260503204828 | 27 | 89 | 6.4 | 17.7 | 0.00 | 0.00 | 0.00 | 47 | 1019.8 |
| 20260503204326 | 27 | 68 | 6.4 | 9.7 | 0.00 | 0.00 | 0.00 | 48 | 1019.7 |
| 20260503203823 | 27 | 122 | 12.9 | 16.1 | 0.00 | 0.00 | 0.00 | 47 | 1020.0 |
| 20260503203321 | 27 | 138 | 12.9 | 19.3 | 0.00 | 0.00 | 0.00 | 45 | 1020.1 |
| 20260503202817 | 27 | 150 | 6.4 | 6.4 | 0.00 | 0.00 | 0.00 | 45 | 1020.0 |
| 20260503202315 | 27 | 36 | 3.2 | 9.7 | 0.00 | 0.00 | 0.00 | 47 | 1020.4 |
| 20260503201813 | 27 | 134 | 8.0 | 16.1 | 0.00 | 0.00 | 0.00 | 46 | 1020.6 |
| 20260503201310 | 27 | 159 | 8.0 | 11.3 | 0.00 | 0.00 | 0.00 | 46 | 1020.8 |
| 20260503200808 | 27 | 97 | 3.2 | 11.3 | 0.00 | 0.00 | 0.00 | 46 | 1020.8 |
| 20260503200303 | 27 | 180 | 8.0 | 12.9 | 0.00 | 0.00 | 0.00 | 47 | 1021.0 |
| 20260503195801 | 27 | 137 | 11.3 | 16.1 | 0.00 | 0.00 | 0.00 | 45 | 1021.0 |
| 20260503195257 | 27 | 106 | 3.2 | 9.7 | 0.00 | 0.00 | 0.00 | 45 | 1021.3 |
| 20260503194755 | 27 | 143 | 8.0 | 9.7 | 0.00 | 0.00 | 0.00 | 45 | 1021.4 |
| 20260503194250 | 27 | 141 | 9.7 | 20.9 | 0.00 | 0.00 | 0.00 | 45 | 1021.5 |
| 20260503193746 | 27 | 156 | 16.1 | 22.5 | 0.00 | 0.00 | 0.00 | 45 | 1021.3 |
| 20260503193243 | 27 | 158 | 9.7 | 12.9 | 0.00 | 0.00 | 0.00 | 47 | 1021.4 |
| 20260503192738 | 26 | 171 | 4.8 | 11.3 | 0.00 | 0.00 | 0.00 | 46 | 1021.5 |
| 20260503192233 | 27 | 141 | 6.4 | 12.9 | 0.00 | 0.00 | 0.00 | 46 | 1021.5 |
| 20260503191731 | 27 | 180 | 4.8 | 9.7 | 0.00 | 0.00 | 0.00 | 48 | 1021.7 |
| 20260503191228 | 26 | 95 | 0.0 | 11.3 | 0.00 | 0.00 | 0.00 | 46 | 1021.7 |
| 20260503190725 | 26 | 171 | 0.0 | 8.0 | 0.00 | 0.00 | 0.00 | 47 | 1021.9 |
| 20260503190221 | 27 | 66 | 6.4 | 14.5 | 0.00 | 0.00 | 0.00 | 45 | 1021.9 |
| 20260503185719 | 27 | 197 | 6.4 | 16.1 | 0.00 | 0.00 | 0.00 | 47 | 1021.8 |
| 20260503185214 | 27 | 155 | 11.3 | 16.1 | 0.00 | 0.00 | 0.00 | 47 | 1022.0 |
| 20260503184709 | 26 | 51 | 3.2 | 9.7 | 0.00 | 0.00 | 0.00 | 45 | 1022.2 |
| 20260503184206 | 27 | 2 | 3.2 | 11.3 | 0.00 | 0.00 | 0.00 | 45 | 1022.1 |
| 20260503183702 | 26 | 134 | 11.3 | 16.1 | 0.00 | 0.00 | 0.00 | 46 | 1022.3 |
| 20260503183159 | 26 | 60 | 4.8 | 9.7 | 0.00 | 0.00 | 0.00 | 45 | 1022.5 |
| 20260503182657 | 26 | 148 | 9.7 | 11.3 | 0.00 | 0.00 | 0.00 | 47 | 1022.7 |
| 20260503182155 | 27 | 186 | 4.8 | 12.9 | 0.00 | 0.00 | 0.00 | 47 | 1022.7 |
| 20260503181652 | 26 | 142 | 17.7 | 17.7 | 0.00 | 0.00 | 0.00 | 48 | 1022.9 |
| 20260503181149 | 26 | 137 | 6.4 | 8.0 | 0.00 | 0.00 | 0.00 | 47 | 1022.8 |
| 20260503180646 | 26 | 125 | 12.9 | 20.9 | 0.00 | 0.00 | 0.00 | 46 | 1022.8 |
| 20260503180144 | 26 | 110 | 1.6 | 11.3 | 0.00 | 0.00 | 0.00 | 47 | 1022.9 |
| 20260503175640 | 26 | 156 | 4.8 | 12.9 | 0.00 | 0.00 | 0.00 | 51 | 1022.9 |
| 20260503175138 | 26 | 142 | 12.9 | 17.7 | 0.00 | 0.00 | 0.00 | 49 | 1023.2 |
| 20260503174634 | 26 | 146 | 8.0 | 8.0 | 0.00 | 0.00 | 0.00 | 52 | 1023.0 |
| 20260503174131 | 26 | 56 | 4.8 | 11.3 | 0.00 | 0.00 | 0.00 | 51 | 1023.3 |
| 20260503173626 | 26 | 142 | 9.7 | 9.7 | 0.00 | 0.00 | 0.00 | 52 | 1023.1 |
| 20260503173123 | 26 | 78 | 8.0 | 11.3 | 0.00 | 0.00 | 0.00 | 47 | 1023.4 |
| 20260503172620 | 26 | 105 | 12.9 | 19.3 | 0.00 | 0.00 | 0.00 | 48 | 1023.6 |
| 20260503172117 | 26 | 133 | 9.7 | 11.3 | 0.00 | 0.00 | 0.00 | 50 | 1023.5 |
| 20260503171614 | 26 | 151 | 9.7 | 17.7 | 0.00 | 0.00 | 0.00 | 51 | 1023.4 |
| 20260503171111 | 25 | 101 | 6.4 | 11.3 | 0.00 | 0.00 | 0.00 | 50 | 1023.7 |
| 20260503170608 | 26 | 263 | 0.0 | 8.0 | 0.00 | 0.00 | 0.00 | 54 | 1023.8 |
| 20260503170104 | 25 | 56 | 3.2 | 16.1 | 0.00 | 0.00 | 0.00 | 52 | 1023.6 |
| 20260503150954 | 23 | 59 | 6.4 | 8.0 | 0.00 | 0.00 | 0.00 | 59 | 1023.8 |
| 20260503150451 | 23 | 47 | 3.2 | 4.8 | 0.00 | 0.00 | 0.00 | 61 | 1023.9 |
| 20260503131343 | 18 | 355 | 3.2 | 6.4 | 0.00 | 0.00 | 0.00 | 75 | 1023.2 |
| 20260503130841 | 18 | 335 | 3.2 | 6.4 | 0.00 | 0.00 | 0.00 | 76 | 1023.1 |
| 20260503130338 | 18 | 16 | 3.2 | 6.4 | 0.00 | 0.00 | 0.00 | 79 | 1023.0 |
| 20260503110732 | 15 | 128 | 0.0 | 3.2 | 0.00 | 0.00 | 0.00 | 86 | 1022.2 |
| 20260503110229 | 15 | 272 | 0.0 | 3.2 | 0.00 | 0.00 | 0.00 | 86 | 1022.2 |
| 20260503100155 | 16 | 324 | 1.6 | 3.2 | 0.00 | 0.00 | 0.00 | 84 | 1022.1 |
| 20260503090115 | 17 | 23 | 0.0 | 3.2 | 0.00 | 0.00 | 0.00 | 81 | 1022.3 |
| 20260503081545 | 17 | 269 | 0.0 | 3.2 | 0.00 | 0.00 | 0.00 | 79 | 1022.5 |
| 20260503081042 | 17 | 313 | 0.0 | 1.6 | 0.00 | 0.00 | 0.00 | 79 | 1022.7 |
| 20260503080538 | 17 | 269 | 3.2 | 4.8 | 0.00 | 0.00 | 0.00 | 80 | 1022.8 |
| 20260503072512 | 17 | 273 | 1.6 | 3.2 | 0.00 | 0.00 | 0.00 | 81 | 1022.8 |
| 20260503072009 | 17 | 221 | 0.0 | 1.6 | 0.00 | 0.00 | 0.00 | 80 | 1022.8 |
| 20260503071505 | 17 | 80 | 0.0 | 1.6 | 0.00 | 0.00 | 0.00 | 80 | 1022.7 |
| 20260503071001 | 17 | 261 | 1.6 | 1.6 | 0.00 | 0.00 | 0.00 | 80 | 1022.7 |
| 20260503070458 | 17 | 26 | 0.0 | 1.6 | 0.00 | 0.00 | 0.00 | 80 | 1022.8 |
| 20260503054917 | 18 | 294 | 0.0 | 1.6 | 0.00 | 0.00 | 0.00 | 76 | 1023.5 |
| 20260503054413 | 18 | 243 | 0.0 | 3.2 | 0.00 | 0.00 | 0.00 | 76 | 1023.6 |
| 20260503053911 | 18 | 273 | 1.6 | 3.2 | 0.00 | 0.00 | 0.00 | 76 | 1023.6 |
| 20260503053409 | 18 | 316 | 0.0 | 3.2 | 0.00 | 0.00 | 0.00 | 76 | 1023.5 |